| time (UTC) | temp F | wind direction | speed MPH | gust MPH | rain 1hr in | rain 24hr in | rain mn in | humidity % | barometer mb |
| 20260904165041 | 114 | 0.0 | 0.0 | 0.00 | 0.00 | 0.00 | 27 | 1014.9 | |
| 20260904164035 | 119 | 0.0 | 0.0 | 0.00 | 0.00 | 0.00 | 23 | 1014.4 | |
| 20260904163041 | 120 | 0.0 | 0.0 | 0.00 | 0.00 | 0.00 | 22 | 1014.3 | |
| 20260904162041 | 124 | 0.0 | 0.0 | 0.00 | 0.00 | 0.00 | 20 | 1014.0 | |
| 20260904161036 | 129 | 0.0 | 0.0 | 0.00 | 0.00 | 0.00 | 17 | 1013.8 | |
| 20260904160035 | 129 | 0.0 | 0.0 | 0.00 | 0.00 | 0.00 | 17 | 1013.8 | |
| 20260904155035 | 128 | 0.0 | 0.0 | 0.00 | 0.00 | 0.00 | 17 | 1013.9 | |
| 20260904154036 | 129 | 0.0 | 0.0 | 0.00 | 0.00 | 0.00 | 17 | 1013.9 | |
| 20260904153035 | 127 | 0.0 | 0.0 | 0.00 | 0.00 | 0.00 | 18 | 1013.9 | |
| 20260904152036 | 130 | 0.0 | 0.0 | 0.00 | 0.00 | 0.00 | 16 | 1013.8 | |
| 20260904151036 | 130 | 0.0 | 0.0 | 0.00 | 0.00 | 0.00 | 16 | 1013.9 | |
| 20260904150041 | 129 | 0.0 | 0.0 | 0.00 | 0.00 | 0.00 | 17 | 1013.9 | |
| 20260904145035 | 130 | 0.0 | 0.0 | 0.00 | 0.00 | 0.00 | 17 | 1013.9 | |
| 20260904144035 | 127 | 0.0 | 0.0 | 0.00 | 0.00 | 0.00 | 18 | 1014.1 | |
| 20260904143036 | 127 | 0.0 | 0.0 | 0.00 | 0.00 | 0.00 | 19 | 1014.2 | |
| 20260904142036 | 118 | 0.0 | 0.0 | 0.00 | 0.00 | 0.00 | 24 | 1014.9 | |
| 20260904141036 | 101 | 0.0 | 0.0 | 0.00 | 0.00 | 0.00 | 37 | 1016.3 | |
| 20260904140035 | 99 | 0.0 | 0.0 | 0.00 | 0.00 | 0.00 | 38 | 1016.5 | |
| 20260904135046 | 99 | 0.0 | 0.0 | 0.00 | 0.00 | 0.00 | 38 | 1016.4 | |
| 20260904134041 | 101 | 0.0 | 0.0 | 0.00 | 0.00 | 0.00 | 36 | 1016.3 | |
| 20260904133035 | 102 | 0.0 | 0.0 | 0.00 | 0.00 | 0.00 | 36 | 1016.2 | |
| 20260904132035 | 100 | 0.0 | 0.0 | 0.00 | 0.00 | 0.00 | 37 | 1016.4 | |
| 20260904131035 | 100 | 0.0 | 0.0 | 0.00 | 0.00 | 0.00 | 36 | 1016.6 | |
| 20260904130036 | 100 | 0.0 | 0.0 | 0.00 | 0.00 | 0.00 | 36 | 1016.5 | |
| 20260904125035 | 100 | 0.0 | 0.0 | 0.00 | 0.00 | 0.00 | 36 | 1016.7 | |
| 20260904124035 | 99 | 0.0 | 0.0 | 0.00 | 0.00 | 0.00 | 37 | 1016.7 | |
| 20260904123035 | 99 | 0.0 | 0.0 | 0.00 | 0.00 | 0.00 | 35 | 1017.0 | |
| 20260904122035 | 99 | 0.0 | 0.0 | 0.00 | 0.00 | 0.00 | 34 | 1017.1 | |
| 20260904121035 | 98 | 0.0 | 0.0 | 0.00 | 0.00 | 0.00 | 35 | 1017.4 | |
| 20260904120036 | 97 | 0.0 | 0.0 | 0.00 | 0.00 | 0.00 | 37 | 1017.5 | |
| 20260904115036 | 97 | 0.0 | 0.0 | 0.00 | 0.00 | 0.00 | 36 | 1017.7 | |
| 20260904114035 | 98 | 0.0 | 0.0 | 0.00 | 0.00 | 0.00 | 35 | 1017.6 | |
| 20260904113035 | 96 | 0.0 | 0.0 | 0.00 | 0.00 | 0.00 | 38 | 1017.7 | |
| 20260904112035 | 96 | 0.0 | 0.0 | 0.00 | 0.00 | 0.00 | 37 | 1017.9 | |
| 20260904111035 | 96 | 0.0 | 0.0 | 0.00 | 0.00 | 0.00 | 37 | 1017.9 | |
| 20260904110036 | 94 | 0.0 | 0.0 | 0.00 | 0.00 | 0.00 | 39 | 1018.2 | |
| 20260904105036 | 93 | 0.0 | 0.0 | 0.00 | 0.00 | 0.00 | 42 | 1018.5 | |
| 20260904104036 | 94 | 0.0 | 0.0 | 0.00 | 0.00 | 0.00 | 39 | 1018.5 | |
| 20260904103036 | 92 | 0.0 | 0.0 | 0.00 | 0.00 | 0.00 | 43 | 1018.8 | |
| 20260904102035 | 92 | 0.0 | 0.0 | 0.00 | 0.00 | 0.00 | 43 | 1018.8 | |
| 20260904101035 | 91 | 0.0 | 0.0 | 0.00 | 0.00 | 0.00 | 48 | 1018.9 | |
| 20260904100035 | 91 | 0.0 | 0.0 | 0.00 | 0.00 | 0.00 | 50 | 1019.1 | |
| 20260904095036 | 89 | 0.0 | 0.0 | 0.00 | 0.00 | 0.00 | 56 | 1019.3 | |
| 20260904094036 | 88 | 0.0 | 0.0 | 0.00 | 0.00 | 0.00 | 60 | 1019.5 | |
| 20260904093036 | 87 | 0.0 | 0.0 | 0.00 | 0.00 | 0.00 | 65 | 1019.6 | |
| 20260904092035 | 85 | 0.0 | 0.0 | 0.00 | 0.00 | 0.00 | 70 | 1019.6 | |
| 20260904091041 | 85 | 0.0 | 0.0 | 0.00 | 0.00 | 0.00 | 74 | 1019.8 | |
| 20260904090036 | 83 | 0.0 | 0.0 | 0.00 | 0.00 | 0.00 | 77 | 1019.8 | |
| 20260904085036 | 81 | 0.0 | 0.0 | 0.00 | 0.00 | 0.00 | 87 | 1020.0 | |
| 20260904084035 | 81 | 0.0 | 0.0 | 0.00 | 0.00 | 0.00 | 89 | 1020.2 | |
| 20260904083035 | 79 | 0.0 | 0.0 | 0.00 | 0.00 | 0.00 | 91 | 1020.2 | |
| 20260904082041 | 79 | 0.0 | 0.0 | 0.00 | 0.00 | 0.00 | 99 | 1020.3 | |
| 20260904081041 | 78 | 0.0 | 0.0 | 0.00 | 0.00 | 0.00 | 10 | 1020.3 | |
| 20260904080036 | 76 | 0.0 | 0.0 | 0.00 | 0.00 | 0.00 | 10 | 1020.4 | |
| 20260904075035 | 75 | 0.0 | 0.0 | 0.00 | 0.00 | 0.00 | 10 | 1020.5 | |
| 20260904074036 | 74 | 0.0 | 0.0 | 0.00 | 0.00 | 0.00 | 10 | 1020.7 | |
| 20260904073041 | 73 | 0.0 | 0.0 | 0.00 | 0.00 | 0.00 | 10 | 1020.7 | |
| 20260904072036 | 72 | 0.0 | 0.0 | 0.00 | 0.00 | 0.00 | 10 | 1020.8 | |
| 20260904071036 | 72 | 0.0 | 0.0 | 0.00 | 0.00 | 0.00 | 10 | 1020.8 | |
| 20260904070035 | 71 | 0.0 | 0.0 | 0.00 | 0.00 | 0.00 | 10 | 1021.0 | |
| 20260904065046 | 71 | 0.0 | 0.0 | 0.00 | 0.00 | 0.00 | 10 | 1020.9 | |
| 20260904064035 | 70 | 0.0 | 0.0 | 0.00 | 0.00 | 0.00 | 10 | 1020.9 | |
| 20260904063035 | 70 | 0.0 | 0.0 | 0.00 | 0.00 | 0.00 | 10 | 1021.0 | |
| 20260904062036 | 69 | 0.0 | 0.0 | 0.00 | 0.00 | 0.00 | 10 | 1020.9 | |
| 20260904061036 | 69 | 0.0 | 0.0 | 0.00 | 0.00 | 0.00 | 10 | 1020.9 | |
| 20260904060036 | 69 | 0.0 | 0.0 | 0.00 | 0.00 | 0.00 | 10 | 1020.9 | |
| 20260904055036 | 68 | 0.0 | 0.0 | 0.00 | 0.00 | 0.00 | 10 | 1020.9 | |
| 20260904054036 | 69 | 0.0 | 0.0 | 0.00 | 0.00 | 0.00 | 10 | 1020.8 | |
| 20260904053035 | 68 | 0.0 | 0.0 | 0.00 | 0.00 | 0.00 | 10 | 1020.9 | |
| 20260904052035 | 68 | 0.0 | 0.0 | 0.00 | 0.00 | 0.00 | 10 | 1020.9 | |
| 20260904051041 | 68 | 0.0 | 0.0 | 0.00 | 0.00 | 0.00 | 10 | 1020.9 | |
| 20260904050035 | 68 | 0.0 | 0.0 | 0.00 | 0.00 | 0.00 | 10 | 1020.9 | |
| 20260904045036 | 68 | 0.0 | 0.0 | 0.00 | 0.00 | 0.00 | 10 | 1020.9 | |
| 20260904044035 | 68 | 0.0 | 0.0 | 0.00 | 0.00 | 0.00 | 10 | 1021.1 | |
| 20260904043036 | 68 | 0.0 | 0.0 | 0.00 | 0.00 | 0.00 | 10 | 1021.1 | |
| 20260904042051 | 68 | 0.0 | 0.0 | 0.00 | 0.00 | 0.00 | 10 | 1021.1 | |
| 20260904041036 | 70 | 0.0 | 0.0 | 0.00 | 0.00 | 0.00 | 10 | 1021.1 | |
| 20260904040035 | 69 | 0.0 | 0.0 | 0.00 | 0.00 | 0.00 | 10 | 1021.2 | |
| 20260904035046 | 69 | 0.0 | 0.0 | 0.00 | 0.00 | 0.00 | 10 | 1021.3 | |
| 20260904034036 | 69 | 0.0 | 0.0 | 0.00 | 0.00 | 0.00 | 10 | 1021.3 | |
| 20260904033035 | 69 | 0.0 | 0.0 | 0.00 | 0.00 | 0.00 | 10 | 1021.2 | |
| 20260904032035 | 70 | 0.0 | 0.0 | 0.00 | 0.00 | 0.00 | 10 | 1021.2 | |
| 20260904031036 | 72 | 0.0 | 0.0 | 0.00 | 0.00 | 0.00 | 10 | 1021.1 | |
| 20260904030035 | 72 | 0.0 | 0.0 | 0.00 | 0.00 | 0.00 | 10 | 1021.1 | |
| 20260904025046 | 72 | 0.0 | 0.0 | 0.00 | 0.00 | 0.00 | 10 | 1021.3 | |
| 20260904024035 | 71 | 0.0 | 0.0 | 0.00 | 0.00 | 0.00 | 10 | 1021.4 | |
| 20260904023036 | 71 | 0.0 | 0.0 | 0.00 | 0.00 | 0.00 | 10 | 1021.4 | |
| 20260904022036 | 71 | 0.0 | 0.0 | 0.00 | 0.00 | 0.00 | 10 | 1021.4 | |
| 20260904021035 | 71 | 0.0 | 0.0 | 0.00 | 0.00 | 0.00 | 10 | 1021.4 | |
| 20260904020035 | 71 | 0.0 | 0.0 | 0.00 | 0.00 | 0.00 | 10 | 1021.4 | |
| 20260904015036 | 71 | 0.0 | 0.0 | 0.00 | 0.00 | 0.00 | 10 | 1021.7 | |
| 20260904014036 | 71 | 0.0 | 0.0 | 0.00 | 0.00 | 0.00 | 10 | 1021.7 | |
| 20260904013051 | 72 | 0.0 | 0.0 | 0.00 | 0.00 | 0.00 | 10 | 1021.8 | |
| 20260904012036 | 72 | 0.0 | 0.0 | 0.00 | 0.00 | 0.00 | 10 | 1021.7 | |
| 20260904011041 | 72 | 0.0 | 0.0 | 0.00 | 0.00 | 0.00 | 10 | 1021.6 | |
| 20260904010036 | 72 | 0.0 | 0.0 | 0.00 | 0.00 | 0.00 | 10 | 1021.8 | |
| 20260904005041 | 73 | 0.0 | 0.0 | 0.00 | 0.00 | 0.00 | 10 | 1021.7 | |
| 20260904004036 | 73 | 0.0 | 0.0 | 0.00 | 0.00 | 0.00 | 10 | 1021.8 | |
| 20260904003035 | 73 | 0.0 | 0.0 | 0.00 | 0.00 | 0.00 | 10 | 1021.9 | |
| 20260904002035 | 73 | 0.0 | 0.0 | 0.00 | 0.00 | 0.00 | 10 | 1021.9 | |
| 20260904001036 | 73 | 0.0 | 0.0 | 0.00 | 0.00 | 0.00 | 10 | 1022.0 | |
| 20260904000036 | 73 | 0.0 | 0.0 | 0.00 | 0.00 | 0.00 | 10 | 1022.0 | |
| 20260903235036 | 73 | 0.0 | 0.0 | 0.00 | 0.00 | 0.00 | 10 | 1022.0 | |
| 20260903234041 | 73 | 0.0 | 0.0 | 0.00 | 0.00 | 0.00 | 10 | 1022.1 | |
| 20260903233046 | 73 | 0.0 | 0.0 | 0.00 | 0.00 | 0.00 | 10 | 1022.1 | |
| 20260903232035 | 74 | 0.0 | 0.0 | 0.00 | 0.00 | 0.00 | 10 | 1022.1 | |
| 20260903231035 | 74 | 0.0 | 0.0 | 0.00 | 0.00 | 0.00 | 10 | 1022.1 | |
| 20260903230036 | 74 | 0.0 | 0.0 | 0.00 | 0.00 | 0.00 | 10 | 1022.1 | |
| 20260903225035 | 74 | 0.0 | 0.0 | 0.00 | 0.00 | 0.00 | 10 | 1022.1 | |
| 20260903224036 | 74 | 0.0 | 0.0 | 0.00 | 0.00 | 0.00 | 10 | 1022.0 | |
| 20260903223036 | 75 | 0.0 | 0.0 | 0.00 | 0.00 | 0.00 | 10 | 1022.0 | |
| 20260903222036 | 75 | 0.0 | 0.0 | 0.00 | 0.00 | 0.00 | 10 | 1021.9 | |
| 20260903221036 | 75 | 0.0 | 0.0 | 0.00 | 0.00 | 0.00 | 10 | 1021.9 | |
| 20260903220036 | 76 | 0.0 | 0.0 | 0.00 | 0.00 | 0.00 | 10 | 1021.9 | |
| 20260903215035 | 76 | 0.0 | 0.0 | 0.00 | 0.00 | 0.00 | 10 | 1021.9 | |
| 20260903214035 | 77 | 0.0 | 0.0 | 0.00 | 0.00 | 0.00 | 10 | 1021.8 | |
| 20260903213035 | 77 | 0.0 | 0.0 | 0.00 | 0.00 | 0.00 | 10 | 1021.8 | |
| 20260903212036 | 77 | 0.0 | 0.0 | 0.00 | 0.00 | 0.00 | 10 | 1021.8 | |
| 20260903211036 | 77 | 0.0 | 0.0 | 0.00 | 0.00 | 0.00 | 98 | 1021.8 | |
| 20260903210036 | 77 | 0.0 | 0.0 | 0.00 | 0.00 | 0.00 | 98 | 1021.8 | |
| 20260903205036 | 77 | 0.0 | 0.0 | 0.00 | 0.00 | 0.00 | 10 | 1021.8 | |
| 20260903204036 | 78 | 0.0 | 0.0 | 0.00 | 0.00 | 0.00 | 98 | 1021.8 | |
| 20260903203036 | 78 | 0.0 | 0.0 | 0.00 | 0.00 | 0.00 | 95 | 1021.9 | |
| 20260903202041 | 79 | 0.0 | 0.0 | 0.00 | 0.00 | 0.00 | 92 | 1021.8 | |
| 20260903201036 | 79 | 0.0 | 0.0 | 0.00 | 0.00 | 0.00 | 92 | 1021.6 | |
| 20260903200036 | 79 | 0.0 | 0.0 | 0.00 | 0.00 | 0.00 | 93 | 1021.7 | |
| 20260903195036 | 79 | 0.0 | 0.0 | 0.00 | 0.00 | 0.00 | 91 | 1021.5 | |
| 20260903194036 | 79 | 0.0 | 0.0 | 0.00 | 0.00 | 0.00 | 90 | 1021.5 | |
| 20260903193036 | 79 | 0.0 | 0.0 | 0.00 | 0.00 | 0.00 | 90 | 1021.3 | |
| 20260903192036 | 79 | 0.0 | 0.0 | 0.00 | 0.00 | 0.00 | 88 | 1021.1 | |
| 20260903191036 | 79 | 0.0 | 0.0 | 0.00 | 0.00 | 0.00 | 87 | 1020.9 | |
| 20260903190041 | 80 | 0.0 | 0.0 | 0.00 | 0.00 | 0.00 | 86 | 1020.8 | |
| 20260903185036 | 80 | 0.0 | 0.0 | 0.00 | 0.00 | 0.00 | 88 | 1020.6 | |
| 20260903184036 | 81 | 0.0 | 0.0 | 0.00 | 0.00 | 0.00 | 84 | 1020.5 | |
| 20260903183036 | 81 | 0.0 | 0.0 | 0.00 | 0.00 | 0.00 | 83 | 1020.3 | |
| 20260903182036 | 82 | 0.0 | 0.0 | 0.00 | 0.00 | 0.00 | 79 | 1020.2 | |
| 20260903181035 | 82 | 0.0 | 0.0 | 0.00 | 0.00 | 0.00 | 76 | 1020.1 | |
| 20260903180036 | 83 | 0.0 | 0.0 | 0.00 | 0.00 | 0.00 | 72 | 1019.8 | |
| 20260903175035 | 84 | 0.0 | 0.0 | 0.00 | 0.00 | 0.00 | 69 | 1019.8 | |
| 20260903174036 | 84 | 0.0 | 0.0 | 0.00 | 0.00 | 0.00 | 62 | 1019.6 | |
| 20260903173042 | 87 | 0.0 | 0.0 | 0.00 | 0.00 | 0.00 | 55 | 1019.5 | |
| 20260903172036 | 93 | 0.0 | 0.0 | 0.00 | 0.00 | 0.00 | 42 | 1018.9 | |
| 20260903171041 | 112 | 0.0 | 0.0 | 0.00 | 0.00 | 0.00 | 26 | 1017.1 | |
| 20260903170036 | 117 | 0.0 | 0.0 | 0.00 | 0.00 | 0.00 | 22 | 1016.7 |